• In Kazakhstan
  • List of Countries
  • For 7 days
  • Water Temperature
  • Weather Map
  • News
  • Weather Widgets
  • user-avatar
    Login

    Hourly Weather Thimphu

    Today, 30 March, Monday

    Time Temperature Precipitation Wind Pressure Humidity
    00:00 +4°C° 0 mm 1 mps 521 mmHg 89%
    01:00 +4°C° 0 mm 1 mps 521 mmHg 88%
    02:00 +3°C° 0 mm 1 mps 520 mmHg 87%
    03:00 +3°C° 0 mm 1 mps 520 mmHg 86%
    04:00 +3°C° 0 mm 1 mps 520 mmHg 83%
    05:00 +3°C° 0 mm 1 mps 520 mmHg 80%
    06:00 +1°C° 0 mm 2 mps 520 mmHg 75%
    07:00 +6°C° 0 mm 1 mps 522 mmHg 63%
    08:00 +9°C° 0 mm 1 mps 525 mmHg 50%
    09:00 +12°C° 0 mm 1 mps 527 mmHg 38%
    10:00 +14°C° 0 mm 2 mps 528 mmHg 33%
    11:00 +15°C° 0 mm 2 mps 528 mmHg 28%
    12:00 +17°C° 0 mm 3 mps 529 mmHg 23%
    13:00 +17°C° 0 mm 3 mps 528 mmHg 25%
    14:00 +17°C° 0 mm 3 mps 527 mmHg 27%
    15:00 +15°C° 0 mm 4 mps 527 mmHg 29%
    16:00 +13°C° 0 mm 3 mps 525 mmHg 44%
    17:00 +10°C° 0 mm 2 mps 524 mmHg 58%
    18:00 +9°C° 0 mm 1 mps 522 mmHg 73%
    19:00 +8°C° 0 mm 1 mps 522 mmHg 77%
    20:00 +7°C° 0 mm 1 mps 523 mmHg 81%
    21:00 +6°C° 0 mm 1 mps 523 mmHg 85%
    22:00 +6°C° 0 mm 1 mps 523 mmHg 83%
    23:00 +5°C° 0 mm 1 mps 522 mmHg 81%

    Tomorrow, 31 March, Tuesday

    Time Temperature Precipitation Wind Pressure Humidity
    00:00 +5°C° 0 mm 1 mps 522 mmHg 79%
    01:00 +5°C° 0 mm 1 mps 522 mmHg 78%
    02:00 +4°C° 0 mm 1 mps 521 mmHg 77%
    03:00 +4°C° 0 mm 1 mps 521 mmHg 76%
    04:00 +4°C° 0 mm 1 mps 521 mmHg 76%
    05:00 +4°C° 0 mm 1 mps 521 mmHg 76%
    06:00 +3°C° 0 mm 1 mps 521 mmHg 76%
    07:00 +6°C° 0 mm 1 mps 523 mmHg 65%
    08:00 +9°C° 0 mm 1 mps 526 mmHg 54%
    09:00 +12°C° 0 mm 1 mps 528 mmHg 43%
    10:00 +14°C° 0 mm 2 mps 528 mmHg 41%
    11:00 +15°C° 0 mm 2 mps 529 mmHg 39%
    12:00 +16°C° 0 mm 3 mps 529 mmHg 36%
    13:00 +16°C° 0.4 mm 3 mps 528 mmHg 39%
    14:00 +14°C° 0.4 mm 3 mps 528 mmHg 42%
    15:00 +14°C° 0.4 mm 3 mps 527 mmHg 45%
    16:00 +13°C° 0.3 mm 2 mps 526 mmHg 53%
    17:00 +10°C° 0.3 mm 2 mps 524 mmHg 61%
    18:00 +9°C° 0.3 mm 1 mps 523 mmHg 69%
    19:00 +8°C° 0 mm 1 mps 523 mmHg 73%
    20:00 +7°C° 0 mm 1 mps 524 mmHg 76%
    21:00 +6°C° 0 mm 0 mps 524 mmHg 80%
    22:00 +5°C° 0 mm 0 mps 523 mmHg 81%
    23:00 +5°C° 0 mm 0 mps 523 mmHg 82%

    Day after tomorrow, 1 April, Wednesday

    Time Temperature Precipitation Wind Pressure Humidity
    00:00 +5°C° 0 mm 0 mps 523 mmHg 82%
    01:00 +4°C° 0 mm 0 mps 522 mmHg 83%
    02:00 +4°C° 0 mm 0 mps 522 mmHg 83%
    03:00 +5°C° 0 mm 1 mps 522 mmHg 84%
    04:00 +4°C° 0 mm 1 mps 522 mmHg 84%
    05:00 +4°C° 0 mm 1 mps 521 mmHg 84%
    06:00 +4°C° 0 mm 1 mps 521 mmHg 84%
    07:00 +6°C° 0 mm 1 mps 523 mmHg 74%
    08:00 +9°C° 0 mm 1 mps 525 mmHg 63%
    09:00 +12°C° 0 mm 1 mps 527 mmHg 53%
    10:00 +12°C° 0.3 mm 2 mps 527 mmHg 53%
    11:00 +12°C° 0.3 mm 2 mps 526 mmHg 52%
    12:00 +13°C° 0.3 mm 2 mps 526 mmHg 52%
    13:00 +11°C° 0.6 mm 3 mps 525 mmHg 53%
    14:00 +11°C° 0.6 mm 3 mps 525 mmHg 54%
    15:00 +11°C° 0.6 mm 3 mps 524 mmHg 55%
    16:00 +9°C° 0.4 mm 2 mps 523 mmHg 61%
    17:00 +8°C° 0.4 mm 2 mps 522 mmHg 67%
    18:00 +7°C° 0.4 mm 1 mps 521 mmHg 73%
    19:00 +6°C° 0.3 mm 1 mps 521 mmHg 77%
    20:00 +5°C° 0.3 mm 1 mps 521 mmHg 81%
    21:00 +4°C° 0.3 mm 1 mps 521 mmHg 85%
    22:00 +4°C° 0.1 mm 1 mps 521 mmHg 84%
    23:00 +3°C° 0.1 mm 1 mps 520 mmHg 83%

    2 April, Thursday

    Time Temperature Precipitation Wind Pressure Humidity
    00:00 +3°C° 0.1 mm 1 mps 520 mmHg 82%
    01:00 +3°C° 0 mm 1 mps 520 mmHg 80%
    02:00 +3°C° 0 mm 1 mps 520 mmHg 79%
    03:00 +2°C° 0 mm 1 mps 519 mmHg 77%
    04:00 +2°C° 0 mm 1 mps 519 mmHg 76%
    05:00 +2°C° 0 mm 1 mps 520 mmHg 76%
    06:00 +2°C° 0 mm 1 mps 520 mmHg 75%
    07:00 +5°C° 0 mm 1 mps 522 mmHg 66%
    08:00 +8°C° 0 mm 1 mps 524 mmHg 57%
    09:00 +11°C° 0 mm 1 mps 526 mmHg 48%
    10:00 +12°C° 0.1 mm 2 mps 526 mmHg 44%
    11:00 +13°C° 0.1 mm 2 mps 526 mmHg 40%
    12:00 +14°C° 0.1 mm 2 mps 527 mmHg 35%
    13:00 +13°C° 0.2 mm 2 mps 526 mmHg 39%
    14:00 +12°C° 0.2 mm 2 mps 525 mmHg 43%
    15:00 +11°C° 0.2 mm 3 mps 524 mmHg 47%
    16:00 +9°C° 0.4 mm 2 mps 523 mmHg 56%
    17:00 +8°C° 0.4 mm 2 mps 522 mmHg 64%
    18:00 +7°C° 0.4 mm 1 mps 521 mmHg 73%
    19:00 +6°C° 0.4 mm 1 mps 521 mmHg 77%
    20:00 +5°C° 0.4 mm 1 mps 521 mmHg 82%
    21:00 +4°C° 0.4 mm 1 mps 521 mmHg 87%
    22:00 +4°C° 0.1 mm 1 mps 521 mmHg 85%
    23:00 +2°C° 0.1 mm 2 mps 521 mmHg 82%

    3 April, Friday

    Time Temperature Precipitation Wind Pressure Humidity
    00:00 +2°C° 0.1 mm 2 mps 521 mmHg 80%
    01:00 +2°C° 0 mm 2 mps 520 mmHg 78%
    02:00 +1°C° 0 mm 2 mps 520 mmHg 75%
    03:00 +1°C° 0 mm 2 mps 520 mmHg 73%
    04:00 +1°C° 0 mm 2 mps 520 mmHg 72%
    05:00 +1°C° 0 mm 2 mps 520 mmHg 71%
    06:00 -1°C° 0 mm 2 mps 520 mmHg 70%
    07:00 +3°C° 0 mm 2 mps 522 mmHg 60%
    08:00 +8°C° 0 mm 1 mps 525 mmHg 50%
    09:00 +11°C° 0 mm 1 mps 527 mmHg 40%
    10:00 +12°C° 0 mm 1 mps 527 mmHg 37%
    11:00 +13°C° 0 mm 2 mps 528 mmHg 35%
    12:00 +14°C° 0 mm 2 mps 528 mmHg 32%
    13:00 +14°C° 0.2 mm 2 mps 527 mmHg 38%
    14:00 +13°C° 0.2 mm 2 mps 526 mmHg 44%
    15:00 +11°C° 0.2 mm 3 mps 525 mmHg 50%
    16:00 +9°C° 0.9 mm 2 mps 524 mmHg 61%
    17:00 +8°C° 0.9 mm 2 mps 523 mmHg 72%
    18:00 +6°C° 0.9 mm 2 mps 521 mmHg 83%
    19:00 +6°C° 1 mm 1 mps 522 mmHg 86%
    20:00 +5°C° 1 mm 1 mps 522 mmHg 89%
    21:00 +5°C° 1 mm 1 mps 522 mmHg 92%
    22:00 +4°C° 0.5 mm 1 mps 522 mmHg 92%
    23:00 +4°C° 0.5 mm 1 mps 522 mmHg 92%

    4 April, Saturday

    Time Temperature Precipitation Wind Pressure Humidity
    00:00 +4°C° 0.5 mm 1 mps 521 mmHg 92%
    01:00 +3°C° 0.1 mm 1 mps 521 mmHg 91%
    02:00 +2°C° 0.1 mm 2 mps 520 mmHg 91%
    03:00 +1°C° 0.1 mm 2 mps 520 mmHg 90%
    04:00 +1°C° 0 mm 2 mps 520 mmHg 87%
    05:00 -1°C° 0 mm 2 mps 520 mmHg 84%
    06:00 -1°C° 0 mm 2 mps 520 mmHg 80%
    07:00 +3°C° 0 mm 2 mps 522 mmHg 71%
    08:00 +7°C° 0 mm 1 mps 524 mmHg 62%
    09:00 +10°C° 0 mm 1 mps 526 mmHg 53%
    10:00 +11°C° 0.1 mm 1 mps 526 mmHg 50%
    11:00 +12°C° 0.1 mm 2 mps 527 mmHg 46%
    12:00 +14°C° 0.1 mm 2 mps 527 mmHg 42%
    13:00 +13°C° 0.5 mm 2 mps 526 mmHg 47%
    14:00 +12°C° 0.5 mm 2 mps 525 mmHg 51%
    15:00 +12°C° 0.5 mm 2 mps 524 mmHg 55%
    16:00 +9°C° 0.4 mm 2 mps 523 mmHg 64%
    17:00 +8°C° 0.4 mm 2 mps 522 mmHg 72%
    18:00 +7°C° 0.4 mm 1 mps 521 mmHg 80%
    19:00 +6°C° 0.2 mm 1 mps 521 mmHg 82%
    20:00 +5°C° 0.2 mm 1 mps 521 mmHg 84%
    21:00 +4°C° 0.2 mm 1 mps 521 mmHg 87%
    22:00 +4°C° 0.1 mm 1 mps 521 mmHg 86%
    23:00 +4°C° 0.1 mm 1 mps 521 mmHg 85%
    Show more